Time,TemperatureF,DewpointF,PressureIn,WindDirection,WindDirectionDegrees,WindSpeedMPH,WindSpeedGustMPH,Humidity,HourlyPrecipIn,Conditions,Clouds,dailyrainin,SolarRadiationWatts/m^2,SoftwareType,DateUTC
2013-06-11 00:02:00,59.0,31.0,-100.00,NE,38,5.0,15.0,34,0.00,,,0.00,0.000000,,2013-06-11 06:02:00,
2013-06-11 00:32:00,57.0,36.0,-100.00,SSW,196,10.0,21.0,45,0.00,,,0.00,0.000000,,2013-06-11 06:32:00,
2013-06-11 00:42:00,57.0,36.0,-100.00,SSW,196,10.0,21.0,45,0.00,,,0.00,0.000000,,2013-06-11 06:42:00,
2013-06-11 00:52:00,57.0,36.0,-100.00,SSW,196,10.0,21.0,45,0.00,,,0.00,0.000000,,2013-06-11 06:52:00,
2013-06-11 01:02:00,57.0,36.0,-100.00,SSW,196,10.0,21.0,45,0.00,,,0.00,0.000000,,2013-06-11 07:02:00,
2013-06-11 01:32:00,56.0,38.0,-100.00,East,85,5.0,12.0,51,0.00,,,0.00,0.000000,,2013-06-11 07:32:00,
2013-06-11 01:42:00,56.0,38.0,-100.00,East,85,5.0,12.0,51,0.00,,,0.00,0.000000,,2013-06-11 07:42:00,
2013-06-11 01:52:00,56.0,38.0,-100.00,East,85,5.0,12.0,51,0.00,,,0.00,0.000000,,2013-06-11 07:52:00,
2013-06-11 02:02:00,56.0,38.0,-100.00,East,85,5.0,12.0,51,0.00,,,0.00,0.000000,,2013-06-11 08:02:00,
2013-06-11 02:32:00,54.0,36.0,-100.00,NE,38,6.0,10.0,50,0.00,,,0.00,0.000000,,2013-06-11 08:32:00,
2013-06-11 02:42:00,54.0,36.0,-100.00,NE,38,6.0,10.0,50,0.00,,,0.00,0.000000,,2013-06-11 08:42:00,
2013-06-11 02:52:00,54.0,36.0,-100.00,NE,38,6.0,10.0,50,0.00,,,0.00,0.000000,,2013-06-11 08:52:00,
2013-06-11 03:02:00,54.0,36.0,-100.00,NE,38,6.0,10.0,50,0.00,,,0.00,0.000000,,2013-06-11 09:02:00,
2013-06-11 03:33:00,54.0,38.0,-100.00,NNE,32,6.0,9.0,55,0.00,,,0.00,0.000000,,2013-06-11 09:33:00,
2013-06-11 03:43:00,54.0,38.0,-100.00,NNE,32,6.0,9.0,55,0.00,,,0.00,0.000000,,2013-06-11 09:43:00,
2013-06-11 03:53:00,54.0,38.0,-100.00,NNE,32,6.0,9.0,55,0.00,,,0.00,0.000000,,2013-06-11 09:53:00,
2013-06-11 04:03:00,54.0,38.0,-100.00,NNE,32,6.0,9.0,55,0.00,,,0.00,0.000000,,2013-06-11 10:03:00,
2013-06-11 04:33:00,53.0,37.0,-100.00,SW,236,4.0,7.0,54,0.00,,,0.00,0.000000,,2013-06-11 10:33:00,
2013-06-11 04:43:00,53.0,37.0,-100.00,SW,236,4.0,7.0,54,0.00,,,0.00,0.000000,,2013-06-11 10:43:00,
2013-06-11 04:52:00,53.0,37.0,-100.00,SW,236,4.0,7.0,54,0.00,,,0.00,0.000000,,2013-06-11 10:52:00,
2013-06-11 05:02:00,53.0,37.0,-100.00,SW,236,4.0,7.0,54,0.00,,,0.00,0.000000,,2013-06-11 11:02:00,
2013-06-11 05:32:00,52.0,37.0,-100.00,SE,146,5.0,10.0,56,0.00,,,-99.99,0.000000,,2013-06-11 11:32:00,
2013-06-11 05:42:00,52.0,37.0,-100.00,SE,146,5.0,10.0,56,0.00,,,-99.99,0.000000,,2013-06-11 11:42:00,
2013-06-11 05:52:00,52.0,37.0,-100.00,SE,146,5.0,10.0,56,0.00,,,-99.99,0.000000,,2013-06-11 11:52:00,
2013-06-11 06:02:00,52.0,37.0,-100.00,SE,146,5.0,10.0,56,0.00,,,-99.99,0.000000,,2013-06-11 12:02:00,
2013-06-11 06:32:00,51.0,35.0,-100.00,North,351,5.0,7.0,54,0.00,,,-99.99,5.000000,,2013-06-11 12:32:00,
2013-06-11 06:42:00,51.0,35.0,-100.00,North,351,5.0,7.0,54,0.00,,,-99.99,5.000000,,2013-06-11 12:42:00,
2013-06-11 06:52:00,51.0,35.0,-100.00,North,351,5.0,7.0,54,0.00,,,-99.99,5.000000,,2013-06-11 12:52:00,
2013-06-11 07:02:00,51.0,35.0,-100.00,North,351,5.0,7.0,54,0.00,,,-99.99,5.000000,,2013-06-11 13:02:00,
2013-06-11 07:32:00,54.0,35.0,-100.00,North,359,3.0,7.0,48,0.00,,,-99.99,102.000000,,2013-06-11 13:32:00,
2013-06-11 07:42:00,54.0,35.0,-100.00,North,359,3.0,7.0,48,0.00,,,-99.99,102.000000,,2013-06-11 13:42:00,
2013-06-11 07:52:00,54.0,35.0,-100.00,North,359,3.0,7.0,48,0.00,,,-99.99,102.000000,,2013-06-11 13:52:00,
2013-06-11 08:02:00,54.0,35.0,-100.00,North,359,3.0,7.0,48,0.00,,,-99.99,102.000000,,2013-06-11 14:02:00,
2013-06-11 08:32:00,57.0,38.0,-100.00,South,183,2.0,7.0,48,0.00,,,0.00,267.000000,,2013-06-11 14:32:00,
2013-06-11 08:42:00,57.0,38.0,-100.00,South,183,2.0,7.0,48,0.00,,,0.00,267.000000,,2013-06-11 14:42:00,
2013-06-11 08:53:00,57.0,38.0,-100.00,South,183,2.0,7.0,48,0.00,,,0.00,267.000000,,2013-06-11 14:53:00,
2013-06-11 09:02:00,57.0,38.0,-100.00,South,183,2.0,7.0,48,0.00,,,0.00,267.000000,,2013-06-11 15:02:00,
2013-06-11 09:33:00,56.0,40.0,-100.00,SW,223,4.0,6.0,54,0.00,,,0.00,356.000000,,2013-06-11 15:33:00,
2013-06-11 09:43:00,56.0,40.0,-100.00,SW,223,4.0,6.0,54,0.00,,,0.00,356.000000,,2013-06-11 15:43:00,
2013-06-11 09:53:00,56.0,40.0,-100.00,SW,223,4.0,6.0,54,0.00,,,0.00,356.000000,,2013-06-11 15:53:00,
2013-06-11 10:02:00,56.0,40.0,-100.00,SW,223,4.0,6.0,54,0.00,,,0.00,356.000000,,2013-06-11 16:02:00,
2013-06-11 10:33:00,58.0,40.0,-100.00,SSW,204,6.0,9.0,51,0.00,,,0.00,283.000000,,2013-06-11 16:33:00,
2013-06-11 10:42:00,58.0,40.0,-100.00,SSW,204,6.0,9.0,51,0.00,,,0.00,283.000000,,2013-06-11 16:42:00,
2013-06-11 10:52:00,58.0,40.0,-100.00,SSW,204,6.0,9.0,51,0.00,,,0.00,283.000000,,2013-06-11 16:52:00,
2013-06-11 11:02:00,58.0,40.0,-100.00,SSW,204,6.0,9.0,51,0.00,,,0.00,283.000000,,2013-06-11 17:02:00,
2013-06-11 11:32:00,62.0,38.0,-100.00,SSW,209,6.0,10.0,41,0.00,,,0.00,630.000000,,2013-06-11 17:32:00,
2013-06-11 11:43:00,62.0,38.0,-100.00,SSW,209,6.0,10.0,41,0.00,,,0.00,630.000000,,2013-06-11 17:43:00,
2013-06-11 11:52:00,62.0,38.0,-100.00,SSW,209,6.0,10.0,41,0.00,,,0.00,630.000000,,2013-06-11 17:52:00,
2013-06-11 12:02:00,62.0,38.0,-100.00,SSW,209,6.0,10.0,41,0.00,,,0.00,630.000000,,2013-06-11 18:02:00,
2013-06-11 12:33:00,64.0,35.0,-100.00,SSW,209,8.0,14.0,34,0.00,,,0.00,683.000000,,2013-06-11 18:33:00,
2013-06-11 12:43:00,64.0,35.0,-100.00,SSW,209,8.0,14.0,34,0.00,,,0.00,683.000000,,2013-06-11 18:43:00,
2013-06-11 12:52:00,64.0,35.0,-100.00,SSW,209,8.0,14.0,34,0.00,,,0.00,683.000000,,2013-06-11 18:52:00,
2013-06-11 13:02:00,64.0,35.0,-100.00,SSW,209,8.0,14.0,34,0.00,,,0.00,683.000000,,2013-06-11 19:02:00,
2013-06-11 13:33:00,64.0,37.0,-100.00,SW,221,9.0,15.0,37,0.00,,,0.00,578.000000,,2013-06-11 19:33:00,
2013-06-11 13:42:00,64.0,37.0,-100.00,SW,221,9.0,15.0,37,0.00,,,0.00,578.000000,,2013-06-11 19:42:00,
2013-06-11 13:52:00,64.0,37.0,-100.00,SW,221,9.0,15.0,37,0.00,,,0.00,578.000000,,2013-06-11 19:52:00,
2013-06-11 14:02:00,64.0,37.0,-100.00,SW,221,9.0,15.0,37,0.00,,,0.00,578.000000,,2013-06-11 20:02:00,
2013-06-11 14:32:00,60.0,41.0,-100.00,SE,139,9.0,16.0,50,0.00,,,0.00,307.000000,,2013-06-11 20:32:00,
2013-06-11 14:42:00,60.0,41.0,-100.00,SE,139,9.0,16.0,50,0.00,,,0.00,307.000000,,2013-06-11 20:42:00,
2013-06-11 14:52:00,60.0,41.0,-100.00,SE,139,9.0,16.0,50,0.00,,,0.00,307.000000,,2013-06-11 20:52:00,
2013-06-11 15:02:00,60.0,41.0,-100.00,SE,139,9.0,16.0,50,0.00,,,0.00,307.000000,,2013-06-11 21:02:00,
2013-06-11 15:33:00,63.0,41.0,-100.00,ESE,121,8.0,13.0,45,0.00,,,0.00,500.000000,,2013-06-11 21:33:00,
2013-06-11 15:42:00,63.0,41.0,-100.00,ESE,121,8.0,13.0,45,0.00,,,0.00,500.000000,,2013-06-11 21:42:00,
2013-06-11 15:53:00,63.0,41.0,-100.00,ESE,121,8.0,13.0,45,0.00,,,0.00,500.000000,,2013-06-11 21:53:00,
2013-06-11 16:03:00,63.0,41.0,-100.00,ESE,121,8.0,13.0,45,0.00,,,0.00,500.000000,,2013-06-11 22:03:00,
2013-06-11 16:33:00,62.0,40.0,-100.00,ESE,104,7.0,13.0,45,0.00,,,0.00,331.000000,,2013-06-11 22:33:00,
2013-06-11 16:42:00,62.0,40.0,-100.00,ESE,104,7.0,13.0,45,0.00,,,0.00,331.000000,,2013-06-11 22:42:00,
2013-06-11 16:52:00,62.0,40.0,-100.00,ESE,104,7.0,13.0,45,0.00,,,0.00,331.000000,,2013-06-11 22:52:00,
2013-06-11 17:02:00,62.0,40.0,-100.00,ESE,104,7.0,13.0,45,0.00,,,0.00,331.000000,,2013-06-11 23:02:00,
2013-06-11 17:32:00,65.0,39.0,-100.00,WSW,249,6.0,33.0,38,0.00,,,0.00,456.000000,,2013-06-11 23:32:00,
2013-06-11 17:42:00,65.0,39.0,-100.00,WSW,249,6.0,33.0,38,0.00,,,0.00,456.000000,,2013-06-11 23:42:00,
2013-06-11 17:52:00,65.0,39.0,-100.00,WSW,249,6.0,33.0,38,0.00,,,0.00,456.000000,,2013-06-11 23:52:00,
2013-06-11 18:02:00,65.0,39.0,-100.00,WSW,249,6.0,33.0,38,0.00,,,0.00,456.000000,,2013-06-12 00:02:00,
2013-06-11 18:32:00,57.0,44.0,-100.00,NW,312,8.0,34.0,61,0.00,,,0.00,199.000000,,2013-06-12 00:32:00,
2013-06-11 18:42:00,57.0,44.0,-100.00,NW,312,8.0,34.0,61,0.00,,,0.00,199.000000,,2013-06-12 00:42:00,
2013-06-11 18:52:00,57.0,44.0,-100.00,NW,312,8.0,34.0,61,0.00,,,0.00,199.000000,,2013-06-12 00:52:00,
2013-06-11 19:02:00,57.0,44.0,-100.00,NW,312,8.0,34.0,61,0.00,,,0.00,199.000000,,2013-06-12 01:02:00,
2013-06-11 19:32:00,56.0,45.0,-100.00,SE,133,3.0,16.0,66,0.00,,,0.00,323.000000,,2013-06-12 01:32:00,
2013-06-11 19:42:00,56.0,45.0,-100.00,SE,133,3.0,16.0,66,0.00,,,0.00,323.000000,,2013-06-12 01:42:00,
2013-06-11 19:52:00,56.0,45.0,-100.00,SE,133,3.0,16.0,66,0.00,,,0.00,323.000000,,2013-06-12 01:52:00,
2013-06-11 20:02:00,56.0,45.0,-100.00,SE,133,3.0,16.0,66,0.00,,,0.00,323.000000,,2013-06-12 02:02:00,
2013-06-11 20:32:00,60.0,43.0,-100.00,SW,226,3.0,7.0,53,0.00,,,0.00,288.000000,,2013-06-12 02:32:00,
2013-06-11 20:42:00,60.0,43.0,-100.00,SW,226,3.0,7.0,53,0.00,,,0.00,288.000000,,2013-06-12 02:42:00,
2013-06-11 20:52:00,60.0,43.0,-100.00,SW,226,3.0,7.0,53,0.00,,,0.00,288.000000,,2013-06-12 02:52:00,
2013-06-11 21:01:00,60.0,43.0,-100.00,SW,226,3.0,7.0,53,0.00,,,0.00,288.000000,,2013-06-12 03:01:00,
2013-06-11 21:33:00,56.0,39.0,-100.00,WNW,291,10.0,12.0,53,0.00,,,0.00,54.000000,,2013-06-12 03:33:00,
2013-06-11 21:43:00,56.0,39.0,-100.00,WNW,291,10.0,12.0,53,0.00,,,0.00,54.000000,,2013-06-12 03:43:00,
2013-06-11 21:53:00,56.0,39.0,-100.00,WNW,291,10.0,12.0,53,0.00,,,0.00,54.000000,,2013-06-12 03:53:00,
2013-06-11 22:02:00,56.0,39.0,-100.00,WNW,291,10.0,12.0,53,0.00,,,0.00,54.000000,,2013-06-12 04:02:00,
2013-06-11 22:34:00,53.0,40.0,-100.00,North,3,7.0,14.0,62,0.00,,,0.00,4.000000,,2013-06-12 04:34:00,
2013-06-11 22:42:00,53.0,40.0,-100.00,North,3,7.0,14.0,62,0.00,,,0.00,4.000000,,2013-06-12 04:42:00,
2013-06-11 22:52:00,53.0,40.0,-100.00,North,3,7.0,14.0,62,0.00,,,0.00,4.000000,,2013-06-12 04:52:00,
2013-06-11 23:02:00,53.0,40.0,-100.00,North,3,7.0,14.0,62,0.00,,,0.00,4.000000,,2013-06-12 05:02:00,
2013-06-11 23:32:00,51.0,40.0,-100.00,North,358,10.0,14.0,67,0.00,,,0.00,0.000000,,2013-06-12 05:32:00,
2013-06-11 23:42:00,51.0,40.0,-100.00,North,358,10.0,14.0,67,0.00,,,0.00,0.000000,,2013-06-12 05:42:00,
2013-06-11 23:52:00,51.0,40.0,-100.00,North,358,10.0,14.0,67,0.00,,,0.00,0.000000,,2013-06-12 05:52:00,